Theta_e
314 314 314 314 313 313 313 313 313 314 314 315 316 316 316 316 315 306 299 303 309 317 321 306 300 300 299 297 301 308 300 296 299 300 302 307 305 308 313 310 309 310 310 312 331
313 313 313 313 313 313 312 312 313 314 314 314 315 315 316 315 309 304 311 315 318 321 301 298 295 299 292 294 298 298 293 298 306 306 304 307 306 307 306 306 306 308 312 314 317
312 312 312 312 313 312 312 312 312 313 314 314 314 315 315 314 301 300 320 320 320 321 305 301 299 298 290 292 294 292 292 301 304 306 305 304 304 307 304 302 306 305 308 311 313
313 314 314 314 313 312 312 312 312 312 313 313 314 314 315 309 288 303 327 324 325 315 303 300 296 291 288 289 293 289 294 299 301 303 301 301 303 302 303 303 308 309 310 310 311
313 313 313 313 313 312 312 312 311 311 311 313 313 314 308 299 302 313 329 324 316 307 302 299 294 291 287 288 290 289 291 294 297 298 298 300 299 299 301 305 308 308 308 308 310
313 313 312 313 312 312 312 311 310 310 311 313 313 316 303 290 306 311 316 317 315 306 303 301 296 295 290 289 288 291 291 292 294 296 297 297 298 299 301 305 305 306 305 305 308
312 313 312 312 312 312 311 311 310 310 312 313 315 314 300 292 306 307 313 308 312 308 302 303 300 294 293 289 291 291 287 290 292 294 295 297 294 296 301 304 303 303 304 305 307
312 311 312 312 311 311 311 312 311 312 313 314 315 307 295 304 307 308 306 304 307 307 305 302 299 293 291 291 291 286 285 281 287 292 294 296 289 297 299 299 299 301 301 302 303
311 310 310 311 311 312 311 311 312 313 314 315 306 298 298 312 306 303 301 299 299 301 302 306 297 292 291 286 283 284 278 281 287 291 291 291 288 295 298 298 298 299 301 301 301
311 310 310 310 310 311 310 311 310 313 314 313 311 297 300 301 305 303 301 301 298 297 296 295 290 287 285 283 278 281 281 283 284 289 291 288 288 293 296 296 296 297 298 300 301
310 310 310 310 311 311 306 298 295 293 302 294 299 298 302 307 306 299 302 299 298 294 286 289 286 283 286 287 287 286 284 284 286 290 289 288 289 291 295 294 293 295 296 298 301
309 309 309 310 310 310 300 299 299 298 291 299 298 302 305 305 298 301 301 294 292 286 288 286 282 288 290 289 288 286 283 283 288 291 289 288 288 291 293 293 294 294 295 296 298
309 308 309 309 310 301 298 301 303 298 289 294 299 298 298 301 296 296 298 294 290 285 284 283 287 292 290 289 288 285 284 285 286 289 289 287 283 286 291 293 294 295 295 296 296
308 307 308 308 300 299 299 303 302 298 286 293 295 298 298 297 294 301 300 296 289 285 286 285 289 289 287 287 289 282 290 290 287 284 278 286 276 282 287 288 291 292 292 294 297
307 308 308 307 297 298 302 302 300 299 276 295 293 299 296 294 295 297 299 294 289 288 286 285 286 285 285 287 291 285 291 288 287 282 280 281 277 281 286 285 288 291 293 297 299
308 308 308 303 298 301 302 301 300 286 278 289 293 292 290 292 293 296 296 297 294 288 287 287 290 288 288 292 291 291 287 284 281 280 274 279 279 277 282 286 289 293 296 297 299
308 308 305 303 296 299 300 298 286 279 291 287 287 290 288 290 292 293 291 289 286 283 282 286 285 291 293 287 288 285 280 274 273 273 273 281 279 280 287 290 291 294 296 297 297
307 305 305 304 301 302 297 290 280 288 286 291 290 289 287 290 290 292 290 286 292 287 282 281 279 288 294 287 284 282 281 274 271 272 273 281 276 280 289 292 295 297 297 298 298
305 300 301 304 305 299 293 283 283 287 292 290 289 285 286 290 290 289 289 289 292 291 284 283 283 291 292 291 289 282 280 282 277 276 272 277 281 287 291 291 293 295 296 295 297
296 298 300 303 301 297 289 287 288 294 293 292 283 287 283 286 286 285 288 293 292 294 292 287 281 290 292 291 289 285 287 277 276 272 272 275 277 279 285 288 290 292 293 295 296
296 296 301 302 301 294 284 287 292 296 295 291 287 286 286 286 286 285 287 292 295 293 293 289 286 285 289 286 283 282 281 282 279 275 270 270 276 285 286 289 289 290 293 295 296
293 290 301 300 290 285 285 290 295 293 296 293 290 288 287 288 286 286 286 291 296 296 288 291 286 282 284 289 290 286 283 282 274 273 281 278 279 290 290 288 291 291 294 297 298
290 291 300 298 282 283 287 290 292 292 293 291 289 290 289 285 283 287 289 294 293 292 291 291 283 279 280 282 285 284 286 284 282 280 279 277 279 290 291 291 293 292 294 296 298
289 285 288 289 287 285 284 286 288 294 292 291 289 289 287 284 286 285 286 292 293 293 297 295 285 283 277 279 281 281 285 286 285 281 280 281 283 288 290 290 291 293 295 295 296
288 283 286 280 282 283 284 286 286 287 290 290 287 286 284 281 283 284 286 288 292 293 290 289 283 284 285 287 287 286 286 286 284 285 281 284 284 288 291 291 292 294 294 295 296
286 284 286 283 285 284 284 283 285 287 287 286 284 286 285 281 284 283 284 285 285 288 287 286 280 283 282 287 287 284 286 286 286 287 286 286 285 293 294 294 293 293 294 295 296
290 289 288 284 282 282 281 284 285 286 288 290 287 285 284 286 288 289 289 290 288 285 284 285 282 281 279 284 284 280 285 286 287 289 288 283 289 291 291 293 293 294 295 295 296
Wind_Speed
16 16 16 16 17 16 16 16 16 15 15 15 15 15 16 16 16 3 7 10 6 10 1 5 2 1 3 2 2 3 2 5 6 5 3 5 6 2 2 5 5 4 4 6 3
18 18 17 17 17 17 16 16 16 15 15 15 16 15 16 15 12 8 13 8 9 2 1 3 3 2 2 2 2 4 3 7 4 3 5 10 2 7 5 9 4 4 6 6 6
17 17 18 17 17 17 17 17 16 16 15 15 15 15 15 10 4 5 5 10 5 4 1 1 1 1 2 2 2 2 3 1 2 3 2 6 2 3 5 11 3 10 13 10 5
19 18 18 18 18 18 17 17 16 16 16 15 14 13 13 2 1 2 9 11 8 6 2 2 3 3 3 5 3 2 4 3 2 2 2 8 11 7 13 13 6 6 9 8 10
21 21 20 20 19 18 18 17 16 15 15 14 13 10 5 3 8 3 10 10 6 5 3 3 4 3 2 2 1 2 2 2 3 5 6 6 13 15 19 8 8 7 7 9 10
21 22 22 22 21 19 18 16 15 15 14 13 10 7 1 3 1 4 8 7 5 3 3 5 5 6 3 2 2 1 2 5 5 5 5 5 10 11 9 6 8 7 7 7 9
21 21 23 23 22 20 18 16 14 14 13 10 7 2 1 12 1 4 7 6 6 5 4 5 3 2 4 2 2 2 2 4 7 7 8 7 13 17 9 5 7 7 7 7 7
22 23 23 23 23 22 20 17 15 13 11 8 6 1 8 5 3 7 4 4 6 6 5 2 4 2 2 1 6 3 4 2 4 1 6 10 12 3 7 6 8 3 6 6 7
24 24 24 25 24 23 22 20 16 8 6 5 3 2 9 9 3 3 5 3 4 4 4 1 4 3 5 4 5 5 1 1 8 5 4 3 3 4 6 7 7 7 2 5 7
23 23 24 25 25 24 23 17 1 7 7 5 3 2 5 4 4 4 4 3 1 2 4 5 5 4 3 4 3 1 2 2 4 5 6 4 7 6 8 7 7 8 7 3 6
25 23 23 24 24 22 9 2 5 3 3 6 4 4 5 6 4 2 3 2 3 7 2 4 5 3 7 7 2 1 3 3 4 3 7 8 10 8 8 6 8 6 7 8 3
26 26 25 24 23 18 2 5 2 3 7 7 6 6 5 1 4 7 2 4 3 1 1 6 1 5 3 4 4 4 2 3 4 5 2 10 19 14 9 7 6 6 8 8 5
25 25 24 23 23 3 2 3 4 4 0 7 4 4 5 8 5 6 6 2 2 1 3 5 5 1 1 2 3 2 3 2 5 4 5 6 6 2 4 4 4 7 7 7 7
25 24 22 22 2 2 1 3 6 2 4 4 3 3 4 4 4 7 7 6 1 5 4 4 3 3 2 3 5 3 5 3 2 4 3 4 9 2 1 5 3 8 9 9 8
25 23 17 7 3 1 3 7 3 4 4 2 1 2 2 4 2 2 2 3 7 4 3 5 4 3 1 3 4 4 2 1 1 2 1 5 1 9 5 3 4 9 8 8 9
25 20 9 2 1 6 7 6 4 6 1 3 3 6 4 3 3 4 3 4 2 4 2 7 2 4 6 3 2 2 3 5 4 2 2 5 3 5 3 4 8 7 9 7 8
26 18 3 2 1 5 5 4 5 4 3 4 3 4 3 3 4 2 3 1 5 3 3 2 1 3 2 4 3 6 6 5 6 4 5 2 5 9 8 10 10 9 11 10 6
25 7 2 3 4 5 4 6 3 2 2 3 3 7 5 3 1 5 4 1 5 2 2 5 3 4 2 4 5 3 7 6 5 4 5 3 9 9 6 9 8 8 9 10 12
15 3 3 3 2 3 6 4 5 1 4 4 6 3 2 1 4 5 4 2 2 1 4 4 4 2 1 3 7 2 3 3 2 3 3 6 9 12 13 9 8 11 6 10 13
3 3 4 7 1 5 6 3 3 2 4 2 4 2 2 2 2 0 2 2 3 2 0 2 2 2 3 3 0 5 6 3 3 2 5 5 8 12 11 15 6 7 9 15 13
4 3 3 7 3 6 4 4 4 4 3 3 3 4 5 3 4 2 4 3 5 9 6 3 3 3 1 5 7 1 2 4 3 5 5 4 9 7 6 8 5 7 12 16 17
3 3 4 3 5 2 0 1 5 5 2 5 3 4 4 4 3 4 5 5 8 2 5 4 4 4 8 3 3 5 7 6 5 5 4 3 17 3 13 5 6 8 10 13 13
2 3 4 4 3 3 6 5 4 3 3 4 3 2 3 1 3 4 3 4 4 4 4 4 1 1 5 1 4 3 4 5 3 2 11 7 14 2 6 9 11 10 8 9 12
3 4 6 6 2 3 4 5 5 4 2 4 4 2 4 2 3 4 2 3 2 3 10 2 6 6 7 5 4 3 7 6 6 6 9 14 28 20 16 15 10 8 6 9 10
4 0 3 4 2 2 2 3 4 4 5 5 3 6 3 4 4 6 5 3 6 8 5 7 8 7 8 9 7 11 17 18 15 19 14 20 19 24 16 13 8 6 8 12 14
3 3 3 3 2 4 2 2 2 4 3 4 2 7 5 5 8 16 2 4 6 5 4 1 2 4 4 9 12 18 20 19 20 20 19 22 24 18 8 5 6 8 11 16 15
2 2 2 3 2 1 4 2 2 4 6 6 3 5 6 11 5 10 11 12 9 6 4 3 3 2 5 1 6 10 16 12 7 7 8 8 14 2 7 6 7 11 15 16 15
Wind_Direction
345 344 343 341 339 336 333 329 326 324 320 317 317 321 321 321 318 334 237 219 192 232 181 304 324 277 115 157 219 146 177 208 205 168 197 288 13 231 290 276 342 310 56 301 354
344 343 341 339 338 335 332 329 324 320 317 316 318 323 321 324 312 271 248 225 223 123 346 6 47 30 85 194 199 169 182 215 182 171 286 262 211 308 336 316 297 306 320 321 322
345 342 340 336 333 333 329 325 321 317 316 316 318 322 323 320 306 257 203 201 196 177 58 7 354 84 176 149 195 207 211 225 20 58 349 296 310 291 294 287 90 315 309 325 302
340 338 335 332 330 327 324 321 316 312 313 314 317 323 324 281 134 348 143 157 153 118 96 118 70 112 167 182 202 214 246 200 122 320 289 286 316 274 262 267 297 296 281 299 307
339 337 336 334 331 327 323 318 312 307 305 308 314 323 345 305 251 295 141 142 115 125 187 158 135 159 204 196 349 167 299 329 305 272 259 284 274 272 259 290 275 275 287 283 285
335 334 333 332 330 326 323 317 310 303 300 302 307 321 329 280 231 10 136 137 157 170 221 175 199 198 152 149 152 222 291 281 264 229 242 228 268 266 272 18 311 298 286 278 272
336 333 331 329 327 325 322 314 305 297 290 294 291 270 329 238 310 2 174 194 180 182 214 209 201 159 131 319 219 251 306 301 220 216 226 191 261 257 319 2 299 347 334 343 326
335 333 331 328 327 324 321 312 301 286 277 274 264 206 249 251 273 300 172 255 209 218 228 260 196 123 133 175 13 48 59 25 287 145 249 173 244 54 1 19 326 340 334 355 335
335 333 331 330 327 325 320 311 303 270 223 196 155 186 273 309 275 276 156 232 177 171 207 224 97 104 40 80 5 5 147 296 320 33 337 141 301 321 323 331 311 311 269 316 318
334 332 331 329 328 325 321 309 203 106 114 161 239 330 280 323 306 299 205 234 344 349 40 64 47 81 47 80 213 227 356 306 257 324 5 298 226 287 297 307 290 299 303 243 296
334 332 330 329 327 327 335 72 21 2 179 205 193 253 272 304 295 310 309 134 87 55 32 10 73 210 249 208 174 109 185 230 285 347 9 290 287 283 270 270 282 282 296 299 264
332 333 330 328 327 326 313 76 96 216 309 233 233 246 271 54 310 301 178 169 103 271 47 22 211 212 267 164 181 180 174 231 288 286 298 277 293 285 216 231 216 262 283 280 279
329 332 330 328 322 5 357 100 356 163 273 297 199 196 209 147 222 262 149 130 162 174 189 162 240 5 95 108 131 155 160 222 235 311 290 313 280 89 279 254 302 285 266 283 286
331 332 330 329 13 305 304 345 341 181 43 294 293 284 154 170 268 217 188 147 120 218 185 218 260 155 133 201 140 195 202 214 259 34 290 39 285 260 124 267 277 304 297 285 297
333 331 329 327 294 88 315 342 321 62 54 280 309 165 129 174 304 287 161 86 209 201 101 259 181 226 1 212 175 202 159 333 293 238 103 280 293 276 309 330 329 310 275 276 285
332 332 334 81 22 256 321 317 61 48 246 329 19 354 351 287 290 301 183 87 141 164 198 248 244 181 201 115 100 77 40 34 51 76 25 259 181 248 240 226 315 306 306 268 285
335 336 147 134 296 318 322 50 43 115 333 333 317 342 295 297 341 9 260 72 180 130 238 261 213 303 134 107 48 72 51 340 347 5 233 284 292 242 248 278 267 254 284 298 293
335 336 187 220 283 337 43 54 103 282 300 285 290 299 204 350 359 334 23 66 37 69 147 172 306 166 180 145 187 188 151 157 242 228 244 2 251 253 221 236 266 240 265 296 297
330 336 327 278 235 72 69 65 196 273 307 290 315 259 278 87 14 24 12 21 7 327 225 154 271 308 184 175 136 170 174 193 146 7 35 229 291 294 281 284 271 269 309 292 285
16 355 292 322 61 63 75 225 231 257 305 270 229 251 255 299 328 301 242 146 341 285 294 177 305 276 313 79 296 156 162 86 19 254 259 258 254 239 303 293 299 309 297 307 302
35 36 272 330 64 48 116 239 283 281 343 280 261 264 257 246 220 245 232 223 147 263 359 161 181 267 280 197 198 166 169 74 129 152 197 300 263 219 238 258 290 304 312 313 307
29 10 311 9 45 18 154 260 295 273 286 280 245 237 224 219 232 246 232 228 203 153 214 190 161 223 234 270 225 169 192 154 135 246 216 214 261 343 278 303 312 311 316 319 315
52 286 324 50 80 338 318 300 268 303 317 316 307 27 7 272 285 247 281 81 63 159 189 182 239 284 315 17 355 162 181 184 183 127 229 245 267 278 340 316 312 315 308 309 318
57 10 332 36 32 76 348 275 289 335 286 340 287 36 359 306 227 271 297 300 44 178 295 193 188 205 222 232 157 281 257 220 213 242 270 233 276 278 288 289 296 297 299 299 297
24 167 168 304 340 328 238 278 289 321 345 359 353 55 338 285 305 253 263 306 299 291 288 179 224 206 236 249 269 258 261 259 243 249 245 276 273 281 289 287 277 276 290 298 305
60 30 2 275 290 308 224 235 291 1 306 292 47 318 291 229 232 282 274 206 224 289 187 36 268 169 255 235 241 257 259 253 253 252 256 261 268 274 268 265 261 279 304 307 306
340 358 100 277 317 354 240 261 239 28 269 243 337 288 269 273 259 260 240 245 237 212 214 178 141 30 267 228 295 271 252 239 218 217 204 235 255 280 273 271 294 307 302 301 299